TimeEDT,TemperatureF,Dew PointF,Humidity,Sea Level PressureIn,VisibilityMPH,Wind Direction,Wind SpeedMPH,Gust SpeedMPH,PrecipitationIn,Events,Conditions,WindDirDegrees,DateUTC
12:15 AM,46.4,44.6,93,30.26,10.0,Calm,Calm,-,N/A,,Clear,0,2011-10-12 04:15:00
12:35 AM,46.4,42.8,87,30.25,10.0,Calm,Calm,-,N/A,,Clear,0,2011-10-12 04:35:00
12:55 AM,44.6,42.8,93,30.25,10.0,Calm,Calm,-,N/A,,Clear,0,2011-10-12 04:55:00
1:15 AM,46.4,42.8,87,30.25,10.0,Calm,Calm,-,N/A,,Clear,0,2011-10-12 05:15:00
1:35 AM,46.4,42.8,87,30.25,10.0,Calm,Calm,-,N/A,,Clear,0,2011-10-12 05:35:00
1:55 AM,46.4,42.8,87,30.25,10.0,Calm,Calm,-,N/A,,Clear,0,2011-10-12 05:55:00
2:15 AM,46.4,42.8,87,30.25,10.0,Calm,Calm,-,N/A,,Clear,0,2011-10-12 06:15:00
2:35 AM,46.4,42.8,87,30.24,10.0,Calm,Calm,-,N/A,,Clear,0,2011-10-12 06:35:00
2:55 AM,46.4,42.8,87,30.23,10.0,Calm,Calm,-,N/A,,Scattered Clouds,0,2011-10-12 06:55:00
3:35 AM,46.4,44.6,93,30.23,10.0,Calm,Calm,-,N/A,,Scattered Clouds,0,2011-10-12 07:35:00
4:15 AM,46.4,42.8,87,30.24,10.0,Calm,Calm,-,N/A,,Clear,0,2011-10-12 08:15:00
4:35 AM,46.4,44.6,93,30.24,10.0,Calm,Calm,-,N/A,,Clear,0,2011-10-12 08:35:00
4:55 AM,46.4,44.6,93,30.24,10.0,Calm,Calm,-,N/A,,Clear,0,2011-10-12 08:55:00
5:15 AM,46.4,42.8,87,30.24,10.0,Calm,Calm,-,N/A,,Clear,0,2011-10-12 09:15:00
5:35 AM,46.4,44.6,93,30.24,10.0,Calm,Calm,-,N/A,,Clear,0,2011-10-12 09:35:00
5:55 AM,44.6,42.8,93,30.25,10.0,Calm,Calm,-,N/A,,Partly Cloudy,0,2011-10-12 09:55:00
6:15 AM,46.4,42.8,87,30.26,1.5,Calm,Calm,-,N/A,,Overcast,0,2011-10-12 10:15:00
6:35 AM,46.4,42.8,87,30.25,0.2,Calm,Calm,-,N/A,,Overcast,0,2011-10-12 10:35:00
6:55 AM,44.6,42.8,93,30.25,1.0,Calm,Calm,-,N/A,,Overcast,0,2011-10-12 10:55:00
7:35 AM,46.4,44.6,93,30.25,1.8,Calm,Calm,-,N/A,,Overcast,0,2011-10-12 11:35:00
7:55 AM,48.2,44.6,87,30.25,6.0,Calm,Calm,-,N/A,,Partly Cloudy,0,2011-10-12 11:55:00
8:15 AM,48.2,46.4,93,30.26,10.0,Calm,Calm,-,N/A,,Mostly Cloudy,0,2011-10-12 12:15:00
8:35 AM,48.2,46.4,93,30.27,10.0,Calm,Calm,-,N/A,,Mostly Cloudy,0,2011-10-12 12:35:00
8:55 AM,51.8,48.2,88,30.27,10.0,East,5.8,-,N/A,,Clear,90,2011-10-12 12:55:00
9:15 AM,51.8,48.2,88,30.27,10.0,ENE,8.1,-,N/A,,Partly Cloudy,70,2011-10-12 13:15:00
9:35 AM,53.6,48.2,82,30.27,10.0,NE,6.9,-,N/A,,Partly Cloudy,50,2011-10-12 13:35:00
9:55 AM,51.8,46.4,82,30.27,10.0,NE,8.1,-,N/A,,Partly Cloudy,50,2011-10-12 13:55:00
10:15 AM,53.6,46.4,77,30.26,10.0,NNE,8.1,-,N/A,,Partly Cloudy,30,2011-10-12 14:15:00
10:35 AM,53.6,46.4,77,30.25,10.0,ENE,10.4,-,N/A,,Partly Cloudy,60,2011-10-12 14:35:00
11:15 AM,55.4,44.6,67,30.24,10.0,ENE,11.5,17.3,N/A,,Overcast,70,2011-10-12 15:15:00
11:35 AM,55.4,44.6,67,30.24,10.0,ENE,11.5,16.1,N/A,,Mostly Cloudy,60,2011-10-12 15:35:00
11:55 AM,55.4,44.6,67,30.24,10.0,ENE,8.1,-,N/A,,Mostly Cloudy,70,2011-10-12 15:55:00
12:15 PM,57.2,44.6,63,30.23,10.0,ENE,10.4,-,N/A,,Scattered Clouds,70,2011-10-12 16:15:00
12:35 PM,55.4,42.8,63,30.22,10.0,ENE,11.5,-,N/A,,Mostly Cloudy,70,2011-10-12 16:35:00
12:55 PM,55.4,42.8,63,30.22,10.0,East,10.4,-,N/A,,Mostly Cloudy,80,2011-10-12 16:55:00
1:15 PM,55.4,42.8,63,30.21,10.0,ENE,10.4,-,N/A,,Mostly Cloudy,70,2011-10-12 17:15:00
1:35 PM,55.4,42.8,63,30.20,10.0,ENE,11.5,-,N/A,,Mostly Cloudy,70,2011-10-12 17:35:00
1:55 PM,55.4,42.8,63,30.19,10.0,ENE,10.4,-,N/A,,Overcast,70,2011-10-12 17:55:00
2:15 PM,55.4,42.8,63,30.19,10.0,East,8.1,-,N/A,,Overcast,90,2011-10-12 18:15:00
2:35 PM,57.2,42.8,59,30.19,10.0,ESE,8.1,-,N/A,,Overcast,110,2011-10-12 18:35:00
2:55 PM,57.2,42.8,59,30.19,10.0,East,11.5,-,N/A,,Overcast,90,2011-10-12 18:55:00
3:15 PM,57.2,42.8,59,30.18,10.0,East,6.9,-,N/A,,Mostly Cloudy,100,2011-10-12 19:15:00
3:35 PM,57.2,42.8,59,30.18,10.0,East,8.1,-,N/A,,Mostly Cloudy,80,2011-10-12 19:35:00
3:55 PM,57.2,42.8,59,30.18,10.0,East,6.9,-,N/A,,Overcast,80,2011-10-12 19:55:00
4:15 PM,57.2,42.8,59,30.17,10.0,East,4.6,-,N/A,,Overcast,100,2011-10-12 20:15:00
4:35 PM,55.4,42.8,63,30.17,10.0,East,8.1,-,N/A,,Overcast,90,2011-10-12 20:35:00
5:35 PM,55.4,44.6,67,30.17,10.0,ESE,4.6,-,N/A,,Mostly Cloudy,110,2011-10-12 21:35:00
5:55 PM,55.4,44.6,67,30.17,10.0,East,4.6,-,N/A,,Overcast,100,2011-10-12 21:55:00
6:15 PM,53.6,44.6,72,30.17,10.0,East,3.5,-,N/A,,Overcast,100,2011-10-12 22:15:00
6:35 PM,53.6,44.6,72,30.17,10.0,East,3.5,-,N/A,,Mostly Cloudy,90,2011-10-12 22:35:00
6:55 PM,53.6,44.6,72,30.17,10.0,ESE,4.6,-,N/A,,Mostly Cloudy,120,2011-10-12 22:55:00
7:15 PM,53.6,46.4,77,30.17,10.0,East,5.8,-,N/A,,Overcast,80,2011-10-12 23:15:00
7:35 PM,53.6,46.4,77,30.16,10.0,East,4.6,-,N/A,,Overcast,100,2011-10-12 23:35:00
7:55 PM,53.6,46.4,77,30.17,10.0,East,5.8,-,N/A,,Overcast,80,2011-10-12 23:55:00
8:15 PM,53.6,46.4,77,30.17,10.0,East,3.5,-,N/A,,Overcast,90,2011-10-13 00:15:00
8:35 PM,53.6,46.4,77,30.16,10.0,ENE,5.8,-,N/A,,Overcast,70,2011-10-13 00:35:00
8:55 PM,53.6,48.2,82,30.15,10.0,ENE,6.9,-,N/A,,Overcast,70,2011-10-13 00:55:00
9:15 PM,53.6,48.2,82,30.15,10.0,ENE,6.9,-,N/A,,Overcast,70,2011-10-13 01:15:00
9:35 PM,53.6,48.2,82,30.14,10.0,ENE,6.9,-,N/A,,Overcast,70,2011-10-13 01:35:00
9:55 PM,53.6,48.2,82,30.14,10.0,ENE,6.9,-,N/A,,Overcast,60,2011-10-13 01:55:00
10:15 PM,53.6,48.2,82,30.13,10.0,ENE,11.5,-,N/A,,Overcast,70,2011-10-13 02:15:00
10:35 PM,53.6,48.2,82,30.12,10.0,ENE,10.4,-,N/A,,Overcast,60,2011-10-13 02:35:00
10:55 PM,53.6,48.2,82,30.12,10.0,ENE,8.1,-,N/A,,Overcast,60,2011-10-13 02:55:00
11:15 PM,53.6,48.2,82,30.12,10.0,East,5.8,-,N/A,,Overcast,80,2011-10-13 03:15:00
11:35 PM,53.6,48.2,82,30.11,10.0,ENE,5.8,-,N/A,,Overcast,60,2011-10-13 03:35:00